This is the latest recevied weather packets stored in our database for station/object WW3TRG. If no packets are shown the sender has not sent any weather packets the latest 10 day(s).
| Time | Temp. | Humidity | Pressure | Rain* | Wind** | Luminosity | Snow |
|---|---|---|---|---|---|---|---|
| 1777752956 | 14.44° C | 40% | 1010.3 hPa | 0 mm | - | 138 W/m² | - |
| 1777752653 | 15° C | 39% | 1010 hPa | 0 mm | - | 495 W/m² | - |
| 1777752348 | 13.89° C | 40% | 1010 hPa | 0 mm | - | 221 W/m² | - |
| 1777752047 | 13.89° C | 42% | 1010.1 hPa | 0 mm | - | 132 W/m² | - |
| 1777751744 | 13.89° C | 42% | 1010.3 hPa | 0 mm | - | 132 W/m² | - |
| 1777751440 | 13.89° C | 40% | 1010.2 hPa | 0 mm | - | 133 W/m² | - |
| 1777751137 | 13.89° C | 41% | 1010.5 hPa | 0 mm | - | 608 W/m² | - |
| 1777750833 | 13.89° C | 40% | 1010.4 hPa | 0 mm | - | 135 W/m² | - |
| 1777750531 | 14.44° C | 39% | 1010.6 hPa | 0 mm | - | 159 W/m² | - |
| 1777750227 | 13.89° C | 41% | 1011 hPa | 0 mm | - | 695 W/m² | - |
| 1777749922 | 13.89° C | 42% | 1010.9 hPa | 0 mm | - | 335 W/m² | - |
| 1777749620 | 13.89° C | 41% | 1010.9 hPa | 0 mm | - | 116 W/m² | - |
| 1777749317 | 13.89° C | 42% | 1010.9 hPa | 0 mm | - | 117 W/m² | - |
| 1777749015 | 13.89° C | 42% | 1010.8 hPa | 0 mm | - | 136 W/m² | - |
| 1777748712 | 13.89° C | 41% | 1011.1 hPa | 0 mm | - | 182 W/m² | - |
| 1777748409 | 14.44° C | 42% | 1011.2 hPa | 0 mm | - | 427 W/m² | - |
| 1777748104 | 13.89° C | 41% | 1011.3 hPa | 0 mm | - | 338 W/m² | - |
| 1777747801 | 13.89° C | 39% | 1011.4 hPa | 0 mm | - | 168 W/m² | - |
| 1777747496 | 13.89° C | 44% | 1011.4 hPa | 0 mm | - | 165 W/m² | - |
| 1777747193 | 13.89° C | 39% | 1011.5 hPa | 0 mm | - | 215 W/m² | - |
| 1777746889 | 13.89° C | 44% | 1011.4 hPa | 0 mm | - | 296 W/m² | - |
| 1777746584 | 13.89° C | 43% | 1011.3 hPa | 0 mm | - | 414 W/m² | - |
| 1777746280 | 13.89° C | 41% | 1011.5 hPa | 0 mm | - | 504 W/m² | - |
| 1777745976 | 14.44° C | 41% | 1011.4 hPa | 0 mm | - | 214 W/m² | - |
| 1777745675 | 15° C | 44% | 1011.3 hPa | 0 mm | - | 676 W/m² | - |
* Rain latest hour (hover to see other rain measurements)
** Current wind speed in m/s (hover to see current wind gust speed)